Year,Month,Day,Hour,Minute,Value (Times are PST for temperature in C)
2019,05,26,00,00,9.60
2019,05,26,00,01,9.60
2019,05,26,00,02,9.60
2019,05,26,00,03,9.50
2019,05,26,00,04,9.50
2019,05,26,00,05,9.50
2019,05,26,00,06,9.50
2019,05,26,00,07,9.50
2019,05,26,00,08,9.50
2019,05,26,00,09,9.40
2019,05,26,00,10,9.40
2019,05,26,00,11,9.40
2019,05,26,00,12,9.40
2019,05,26,00,13,9.40
2019,05,26,00,14,9.40
2019,05,26,00,15,9.30
2019,05,26,00,16,9.30
2019,05,26,00,17,9.30
2019,05,26,00,18,9.30
2019,05,26,00,19,9.20
2019,05,26,00,20,9.20
2019,05,26,00,21,9.20
2019,05,26,00,22,9.20
2019,05,26,00,23,9.20
2019,05,26,00,24,9.20
2019,05,26,00,25,9.20
2019,05,26,00,26,9.20
2019,05,26,00,27,9.20
2019,05,26,00,28,9.20
2019,05,26,00,29,9.20
2019,05,26,00,30,9.20
2019,05,26,00,31,9.20
2019,05,26,00,32,9.20
2019,05,26,00,33,9.20
2019,05,26,00,34,9.20
2019,05,26,00,35,9.20
2019,05,26,00,36,9.20
2019,05,26,00,37,9.10
2019,05,26,00,38,9.10
2019,05,26,00,39,9.10
2019,05,26,00,40,9.10
2019,05,26,00,41,9.10
2019,05,26,00,42,9.10
2019,05,26,00,43,9.00
2019,05,26,00,44,9.00
2019,05,26,00,45,9.00
2019,05,26,00,46,9.00
2019,05,26,00,47,9.00
2019,05,26,00,48,9.00
2019,05,26,00,49,8.90
2019,05,26,00,50,8.90
2019,05,26,00,51,8.90
2019,05,26,00,52,8.90
2019,05,26,00,53,8.80
2019,05,26,00,54,8.80
2019,05,26,00,55,8.80
2019,05,26,00,56,8.70
2019,05,26,00,57,8.70
2019,05,26,00,58,8.70
2019,05,26,00,59,8.70
2019,05,26,01,00,8.70
2019,05,26,01,01,8.70
2019,05,26,01,02,8.60
2019,05,26,01,03,8.60
2019,05,26,01,04,8.60
2019,05,26,01,05,8.60
2019,05,26,01,06,8.50
2019,05,26,01,07,8.50
2019,05,26,01,08,8.50
2019,05,26,01,09,8.50
2019,05,26,01,10,8.50
2019,05,26,01,11,8.50
2019,05,26,01,12,8.50
2019,05,26,01,13,8.50
2019,05,26,01,14,8.50
2019,05,26,01,15,8.50
2019,05,26,01,16,8.50
2019,05,26,01,17,8.50
2019,05,26,01,18,8.50
2019,05,26,01,19,8.50
2019,05,26,01,20,8.50
2019,05,26,01,21,8.50
2019,05,26,01,22,8.40
2019,05,26,01,23,8.40
2019,05,26,01,24,8.40
2019,05,26,01,25,8.40
2019,05,26,01,26,8.40
2019,05,26,01,27,8.30
2019,05,26,01,28,8.30
2019,05,26,01,29,8.30
2019,05,26,01,30,8.30
2019,05,26,01,31,8.30
2019,05,26,01,32,8.30
2019,05,26,01,33,8.30
2019,05,26,01,34,8.30
2019,05,26,01,35,8.30
2019,05,26,01,36,8.20
2019,05,26,01,37,8.20
2019,05,26,01,38,8.20
2019,05,26,01,39,8.20
2019,05,26,01,40,8.20
2019,05,26,01,41,8.20
2019,05,26,01,42,8.20
2019,05,26,01,43,8.30
2019,05,26,01,44,8.30
2019,05,26,01,45,8.30
2019,05,26,01,46,8.30
2019,05,26,01,47,8.30
2019,05,26,01,48,8.30
2019,05,26,01,49,8.30
2019,05,26,01,50,8.30
2019,05,26,01,51,8.30
2019,05,26,01,52,8.30
2019,05,26,01,53,8.20
2019,05,26,01,54,8.20
2019,05,26,01,55,8.20
2019,05,26,01,56,8.30
2019,05,26,01,57,8.30
2019,05,26,01,58,8.30
2019,05,26,01,59,8.40
2019,05,26,02,00,8.40
2019,05,26,02,01,8.50
2019,05,26,02,02,8.50
2019,05,26,02,03,8.60
2019,05,26,02,04,8.60
2019,05,26,02,05,8.60
2019,05,26,02,06,8.50
2019,05,26,02,07,8.50
2019,05,26,02,08,8.50
2019,05,26,02,09,8.50
2019,05,26,02,10,8.40
2019,05,26,02,11,8.40
2019,05,26,02,12,8.40
2019,05,26,02,13,8.40
2019,05,26,02,14,8.40
2019,05,26,02,15,8.40
2019,05,26,02,16,8.40
2019,05,26,02,17,8.40
2019,05,26,02,18,8.40
2019,05,26,02,19,8.40
2019,05,26,02,20,8.30
2019,05,26,02,21,8.30
2019,05,26,02,22,8.30
2019,05,26,02,23,8.20
2019,05,26,02,24,8.20
2019,05,26,02,25,8.20
2019,05,26,02,26,8.20
2019,05,26,02,27,8.10
2019,05,26,02,28,8.10
2019,05,26,02,29,8.10
2019,05,26,02,30,8.00
2019,05,26,02,31,8.00
2019,05,26,02,32,8.00
2019,05,26,02,33,8.00
2019,05,26,02,34,7.90
2019,05,26,02,35,7.90
2019,05,26,02,36,7.90
2019,05,26,02,37,7.90
2019,05,26,02,38,7.80
2019,05,26,02,39,7.80
2019,05,26,02,40,7.80
2019,05,26,02,41,7.80
2019,05,26,02,42,7.80
2019,05,26,02,43,7.80
2019,05,26,02,44,7.80
2019,05,26,02,45,7.80
2019,05,26,02,46,7.80
2019,05,26,02,47,7.80
2019,05,26,02,48,7.80
2019,05,26,02,49,7.80
2019,05,26,02,50,7.80
2019,05,26,02,51,7.80
2019,05,26,02,52,7.80
2019,05,26,02,53,7.80
2019,05,26,02,54,7.80
2019,05,26,02,55,7.80
2019,05,26,02,56,7.80
2019,05,26,02,57,7.80
2019,05,26,02,58,7.80
2019,05,26,02,59,7.80
2019,05,26,03,00,7.70
2019,05,26,03,01,7.70
2019,05,26,03,02,7.70
2019,05,26,03,03,7.70
2019,05,26,03,04,7.70
2019,05,26,03,05,7.70
2019,05,26,03,06,7.60
2019,05,26,03,07,7.70
2019,05,26,03,08,7.70
2019,05,26,03,09,7.70
2019,05,26,03,10,7.70
2019,05,26,03,11,7.70
2019,05,26,03,12,7.70
2019,05,26,03,13,7.70
2019,05,26,03,14,7.70
2019,05,26,03,15,7.70
2019,05,26,03,16,7.70
2019,05,26,03,17,7.70
2019,05,26,03,18,7.70
2019,05,26,03,19,7.60
2019,05,26,03,20,7.60
2019,05,26,03,21,7.60
2019,05,26,03,22,7.60
2019,05,26,03,23,7.60
2019,05,26,03,24,7.60
2019,05,26,03,25,7.60
2019,05,26,03,26,7.50
2019,05,26,03,27,7.50
2019,05,26,03,28,7.50
2019,05,26,03,29,7.50
2019,05,26,03,30,7.50
2019,05,26,03,31,7.50
2019,05,26,03,32,7.50
2019,05,26,03,33,7.50
2019,05,26,03,34,7.50
2019,05,26,03,35,7.60
2019,05,26,03,36,7.60
2019,05,26,03,37,7.60
2019,05,26,03,38,7.60
2019,05,26,03,39,7.60
2019,05,26,03,40,7.60
2019,05,26,03,41,7.60
2019,05,26,03,42,7.60
2019,05,26,03,43,7.60
2019,05,26,03,44,7.60
2019,05,26,03,45,7.50
2019,05,26,03,46,7.50
2019,05,26,03,47,7.50
2019,05,26,03,48,7.50
2019,05,26,03,49,7.50
2019,05,26,03,50,7.40
2019,05,26,03,51,7.40
2019,05,26,03,52,7.40
2019,05,26,03,53,7.30
2019,05,26,03,54,7.30
2019,05,26,03,55,7.30
2019,05,26,03,56,7.30
2019,05,26,03,57,7.30
2019,05,26,03,58,7.30
2019,05,26,03,59,7.30
2019,05,26,04,00,7.30
2019,05,26,04,01,7.30
2019,05,26,04,02,7.30
2019,05,26,04,03,7.30
2019,05,26,04,04,7.30
2019,05,26,04,05,7.20
2019,05,26,04,06,7.20
2019,05,26,04,07,7.20
2019,05,26,04,08,7.20
2019,05,26,04,09,7.10
2019,05,26,04,10,7.10
2019,05,26,04,11,7.10
2019,05,26,04,12,7.10
2019,05,26,04,13,7.10
2019,05,26,04,14,7.10
2019,05,26,04,15,7.10
2019,05,26,04,16,7.10
2019,05,26,04,17,7.20
2019,05,26,04,18,7.20
2019,05,26,04,19,7.20
2019,05,26,04,20,7.20
2019,05,26,04,21,7.20
2019,05,26,04,22,7.20
2019,05,26,04,23,7.20
2019,05,26,04,24,7.20
2019,05,26,04,25,7.20
2019,05,26,04,26,7.10
2019,05,26,04,27,7.10
2019,05,26,04,28,7.10
2019,05,26,04,29,7.10
2019,05,26,04,30,7.10
2019,05,26,04,31,7.10
2019,05,26,04,32,7.10
2019,05,26,04,33,7.10
2019,05,26,04,34,7.10
2019,05,26,04,35,7.10
2019,05,26,04,36,7.10
2019,05,26,04,37,7.10
2019,05,26,04,38,7.10
2019,05,26,04,39,7.10
2019,05,26,04,40,7.00
2019,05,26,04,41,7.00
2019,05,26,04,42,7.00
2019,05,26,04,43,7.00
2019,05,26,04,44,7.00
2019,05,26,04,45,7.00
2019,05,26,04,46,7.00
2019,05,26,04,47,7.00
2019,05,26,04,48,7.00
2019,05,26,04,49,7.00
2019,05,26,04,50,6.90
2019,05,26,04,51,6.90
2019,05,26,04,52,6.90
2019,05,26,04,53,6.90
2019,05,26,04,54,6.90
2019,05,26,04,55,6.90
2019,05,26,04,56,6.90
2019,05,26,04,57,6.90
2019,05,26,04,58,6.90
2019,05,26,04,59,6.90
2019,05,26,05,00,6.90
2019,05,26,05,01,6.90
2019,05,26,05,02,6.90
2019,05,26,05,03,6.90
2019,05,26,05,04,6.90
2019,05,26,05,05,6.90
2019,05,26,05,06,6.90
2019,05,26,05,07,6.90
2019,05,26,05,08,6.90
2019,05,26,05,09,7.00
2019,05,26,05,10,7.00
2019,05,26,05,11,6.90
2019,05,26,05,12,6.90
2019,05,26,05,13,6.90
2019,05,26,05,14,6.90
2019,05,26,05,15,6.90
2019,05,26,05,16,6.90
2019,05,26,05,17,6.90
2019,05,26,05,18,6.90
2019,05,26,05,19,6.90
2019,05,26,05,20,7.00
2019,05,26,05,21,7.00
2019,05,26,05,22,7.00
2019,05,26,05,23,7.00
2019,05,26,05,24,7.00
2019,05,26,05,25,6.90
2019,05,26,05,26,6.90
2019,05,26,05,27,6.90
2019,05,26,05,28,6.90
2019,05,26,05,29,6.90
2019,05,26,05,30,6.80
2019,05,26,05,31,6.80
2019,05,26,05,32,6.80
2019,05,26,05,33,6.80
2019,05,26,05,34,6.80
2019,05,26,05,35,6.80
2019,05,26,05,36,6.80
2019,05,26,05,37,6.80
2019,05,26,05,38,6.90
2019,05,26,05,39,6.90
2019,05,26,05,40,6.90
2019,05,26,05,41,6.90
2019,05,26,05,42,6.90
2019,05,26,05,43,7.00
2019,05,26,05,44,7.00
2019,05,26,05,45,7.00
2019,05,26,05,46,7.00
2019,05,26,05,47,7.00
2019,05,26,05,48,7.00
2019,05,26,05,49,7.00
2019,05,26,05,50,7.00
2019,05,26,05,51,6.90
2019,05,26,05,52,6.90
2019,05,26,05,53,6.90
2019,05,26,05,54,6.90
2019,05,26,05,55,6.90
2019,05,26,05,56,7.00
2019,05,26,05,57,7.00
2019,05,26,05,58,7.00
2019,05,26,05,59,7.10
2019,05,26,06,00,7.10
2019,05,26,06,01,7.10
2019,05,26,06,02,7.10
2019,05,26,06,03,7.20
2019,05,26,06,04,7.20
2019,05,26,06,05,7.20
2019,05,26,06,06,7.30
2019,05,26,06,07,7.30
2019,05,26,06,08,7.40
2019,05,26,06,09,7.40
2019,05,26,06,10,7.50
2019,05,26,06,11,7.60
2019,05,26,06,12,7.60
2019,05,26,06,13,7.80
2019,05,26,06,14,7.80
2019,05,26,06,15,7.80
2019,05,26,06,16,7.90
2019,05,26,06,17,7.90
2019,05,26,06,18,7.90
2019,05,26,06,19,8.00
2019,05,26,06,20,8.00
2019,05,26,06,21,8.10
2019,05,26,06,22,8.10
2019,05,26,06,23,8.20
2019,05,26,06,24,8.20
2019,05,26,06,25,8.30
2019,05,26,06,26,8.40
2019,05,26,06,27,8.40
2019,05,26,06,28,8.50
2019,05,26,06,29,8.60
2019,05,26,06,30,8.60
2019,05,26,06,31,8.70
2019,05,26,06,32,8.70
2019,05,26,06,33,8.70
2019,05,26,06,34,8.70
2019,05,26,06,35,8.80
2019,05,26,06,36,8.90
2019,05,26,06,37,9.00
2019,05,26,06,38,9.00
2019,05,26,06,39,9.00
2019,05,26,06,40,9.00
2019,05,26,06,41,9.10
2019,05,26,06,42,9.10
2019,05,26,06,43,9.20
2019,05,26,06,44,9.20
2019,05,26,06,45,9.20
2019,05,26,06,46,9.30
2019,05,26,06,47,9.30
2019,05,26,06,48,9.40
2019,05,26,06,49,9.50
2019,05,26,06,50,9.60
2019,05,26,06,51,9.70
2019,05,26,06,52,9.80
2019,05,26,06,53,9.90
2019,05,26,06,54,9.90
2019,05,26,06,55,10.00
2019,05,26,06,56,10.10
2019,05,26,06,57,10.10
2019,05,26,06,58,10.10
2019,05,26,06,59,10.10
2019,05,26,07,00,10.10
2019,05,26,07,01,10.10
2019,05,26,07,02,10.10
2019,05,26,07,03,10.20
2019,05,26,07,04,10.20
2019,05,26,07,05,10.20
2019,05,26,07,06,10.30
2019,05,26,07,07,10.30
2019,05,26,07,08,10.40
2019,05,26,07,09,10.40
2019,05,26,07,10,10.50
2019,05,26,07,11,10.60
2019,05,26,07,12,10.60
2019,05,26,07,13,10.60
2019,05,26,07,14,10.60
2019,05,26,07,15,10.60
2019,05,26,07,16,10.60
2019,05,26,07,17,10.60
2019,05,26,07,18,10.70
2019,05,26,07,19,10.70
2019,05,26,07,20,10.80
2019,05,26,07,21,10.80
2019,05,26,07,22,10.80
2019,05,26,07,23,10.80
2019,05,26,07,24,10.80
2019,05,26,07,25,10.80
2019,05,26,07,26,10.80
2019,05,26,07,27,10.90
2019,05,26,07,28,10.90
2019,05,26,07,29,10.90
2019,05,26,07,30,10.90
2019,05,26,07,31,11.00
2019,05,26,07,32,11.10
2019,05,26,07,33,11.10
2019,05,26,07,34,11.20
2019,05,26,07,35,11.30
2019,05,26,07,36,11.30
2019,05,26,07,37,11.40
2019,05,26,07,38,11.60
2019,05,26,07,39,11.60
2019,05,26,07,40,11.70
2019,05,26,07,41,11.80
2019,05,26,07,42,11.80
2019,05,26,07,43,11.80
2019,05,26,07,44,11.80
2019,05,26,07,45,11.80
2019,05,26,07,46,11.90
2019,05,26,07,47,11.90
2019,05,26,07,48,11.90
2019,05,26,07,49,12.00
2019,05,26,07,50,12.10
2019,05,26,07,51,12.10
2019,05,26,07,52,12.20
2019,05,26,07,53,12.20
2019,05,26,07,54,12.30
2019,05,26,07,55,12.40
2019,05,26,07,56,12.40
2019,05,26,07,57,12.50
2019,05,26,07,58,12.60
2019,05,26,07,59,12.70
2019,05,26,08,00,12.70
2019,05,26,08,01,12.80
2019,05,26,08,02,12.80
2019,05,26,08,03,12.90
2019,05,26,08,04,13.00
2019,05,26,08,05,13.10
2019,05,26,08,06,13.30
2019,05,26,08,07,13.40
2019,05,26,08,08,13.50
2019,05,26,08,09,13.50
2019,05,26,08,10,13.60
2019,05,26,08,11,13.70
2019,05,26,08,12,13.80
2019,05,26,08,13,13.90
2019,05,26,08,14,14.00
2019,05,26,08,15,14.10
2019,05,26,08,16,14.10
2019,05,26,08,17,14.20
2019,05,26,08,18,14.30
2019,05,26,08,19,14.50
2019,05,26,08,20,14.50
2019,05,26,08,21,14.60
2019,05,26,08,22,14.60
2019,05,26,08,23,14.80
2019,05,26,08,24,14.80
2019,05,26,08,25,14.80
2019,05,26,08,26,14.90
2019,05,26,08,27,14.90
2019,05,26,08,28,14.90
2019,05,26,08,29,15.00
2019,05,26,08,30,15.00
2019,05,26,08,31,15.20
2019,05,26,08,32,15.30
2019,05,26,08,33,15.40
2019,05,26,08,34,15.40
2019,05,26,08,35,15.50
2019,05,26,08,36,15.60
2019,05,26,08,37,15.70
2019,05,26,08,38,15.80
2019,05,26,08,39,15.80
2019,05,26,08,40,15.80
2019,05,26,08,41,15.80
2019,05,26,08,42,15.80
2019,05,26,08,43,15.90
2019,05,26,08,44,16.00
2019,05,26,08,45,16.10
2019,05,26,08,46,16.20
2019,05,26,08,47,16.20
2019,05,26,08,48,16.30
2019,05,26,08,49,16.30
2019,05,26,08,50,16.30
2019,05,26,08,51,16.30
2019,05,26,08,52,16.20
2019,05,26,08,53,16.30
2019,05,26,08,54,16.40
2019,05,26,08,55,16.40
2019,05,26,08,56,16.60
2019,05,26,08,57,16.70
2019,05,26,08,58,16.70
2019,05,26,08,59,16.70
2019,05,26,09,00,16.80
2019,05,26,09,01,16.80
2019,05,26,09,02,16.80
2019,05,26,09,03,16.80
2019,05,26,09,04,16.90
2019,05,26,09,05,16.90
2019,05,26,09,06,16.90
2019,05,26,09,07,17.00
2019,05,26,09,08,17.00
2019,05,26,09,09,17.00
2019,05,26,09,10,17.00
2019,05,26,09,11,17.10
2019,05,26,09,12,17.10
2019,05,26,09,13,17.10
2019,05,26,09,14,17.10
2019,05,26,09,15,17.20
2019,05,26,09,16,17.20
2019,05,26,09,17,17.20
2019,05,26,09,18,17.20
2019,05,26,09,19,17.20
2019,05,26,09,20,17.20
2019,05,26,09,21,17.30
2019,05,26,09,22,17.30
2019,05,26,09,23,17.30
2019,05,26,09,24,17.30
2019,05,26,09,25,17.30
2019,05,26,09,26,17.40
2019,05,26,09,27,17.40
2019,05,26,09,28,17.40
2019,05,26,09,29,17.30
2019,05,26,09,30,17.30
2019,05,26,09,31,17.30
2019,05,26,09,32,17.30
2019,05,26,09,33,17.30
2019,05,26,09,34,17.40
2019,05,26,09,35,17.40
2019,05,26,09,36,17.40
2019,05,26,09,37,17.50
2019,05,26,09,38,17.60
2019,05,26,09,39,17.60
2019,05,26,09,40,17.60
2019,05,26,09,41,17.50
2019,05,26,09,42,17.50
2019,05,26,09,43,17.50
2019,05,26,09,44,17.50
2019,05,26,09,45,17.30
2019,05,26,09,46,17.10
2019,05,26,09,47,17.00
2019,05,26,09,48,16.90
2019,05,26,09,49,16.80
2019,05,26,09,50,16.80
2019,05,26,09,51,16.70
2019,05,26,09,52,16.60
2019,05,26,09,53,16.50
2019,05,26,09,54,16.40
2019,05,26,09,55,16.30
2019,05,26,09,56,16.30
2019,05,26,09,57,16.30
2019,05,26,09,58,16.30
2019,05,26,09,59,16.40
2019,05,26,10,00,16.40
2019,05,26,10,01,16.40
2019,05,26,10,02,16.40
2019,05,26,10,03,16.40
2019,05,26,10,04,16.40
2019,05,26,10,05,16.40
2019,05,26,10,06,16.40
2019,05,26,10,07,16.40
2019,05,26,10,08,16.50
2019,05,26,10,09,16.60
2019,05,26,10,10,16.60
2019,05,26,10,11,16.60
2019,05,26,10,12,16.70
2019,05,26,10,13,16.70
2019,05,26,10,14,16.60
2019,05,26,10,15,16.40
2019,05,26,10,16,16.40
2019,05,26,10,17,16.40
2019,05,26,10,18,16.40
2019,05,26,10,19,16.40
2019,05,26,10,20,16.50
2019,05,26,10,21,16.60
2019,05,26,10,22,16.60
2019,05,26,10,23,16.70
2019,05,26,10,24,16.70
2019,05,26,10,25,16.80
2019,05,26,10,26,16.90
2019,05,26,10,27,16.90
2019,05,26,10,28,16.90
2019,05,26,10,29,16.80
2019,05,26,10,30,16.80
2019,05,26,10,31,16.80
2019,05,26,10,32,16.80
2019,05,26,10,33,16.80
2019,05,26,10,34,16.70
2019,05,26,10,35,16.70
2019,05,26,10,36,16.70
2019,05,26,10,37,16.70
2019,05,26,10,38,16.70
2019,05,26,10,39,16.80
2019,05,26,10,40,17.00
2019,05,26,10,41,17.00
2019,05,26,10,42,17.20
2019,05,26,10,43,17.30
2019,05,26,10,44,17.40
2019,05,26,10,45,17.50
2019,05,26,10,46,17.50
2019,05,26,10,47,17.50
2019,05,26,10,48,17.40
2019,05,26,10,49,17.30
2019,05,26,10,50,17.30
2019,05,26,10,51,17.20
2019,05,26,10,52,17.20
2019,05,26,10,53,17.20
2019,05,26,10,54,17.20
2019,05,26,10,55,17.20
2019,05,26,10,56,17.20
2019,05,26,10,57,17.30
2019,05,26,10,58,17.40
2019,05,26,10,59,17.50
2019,05,26,11,00,17.50
2019,05,26,11,01,17.70
2019,05,26,11,02,17.80
2019,05,26,11,03,17.90
2019,05,26,11,04,17.90
2019,05,26,11,05,17.80
2019,05,26,11,06,17.80
2019,05,26,11,07,17.70
2019,05,26,11,08,17.80
2019,05,26,11,09,17.90
2019,05,26,11,10,17.70
2019,05,26,11,11,17.60
2019,05,26,11,12,17.50
2019,05,26,11,13,17.30
2019,05,26,11,14,17.10
2019,05,26,11,15,17.00
2019,05,26,11,16,16.90
2019,05,26,11,17,16.90
2019,05,26,11,18,16.90
2019,05,26,11,19,16.80
2019,05,26,11,20,16.90
2019,05,26,11,21,17.00
2019,05,26,11,22,17.00
2019,05,26,11,23,17.00
2019,05,26,11,24,17.00
2019,05,26,11,25,17.10
2019,05,26,11,26,17.00
2019,05,26,11,27,16.80
2019,05,26,11,28,16.70
2019,05,26,11,29,16.70
2019,05,26,11,30,16.70
2019,05,26,11,31,16.70
2019,05,26,11,32,16.70
2019,05,26,11,33,16.80
2019,05,26,11,34,16.80
2019,05,26,11,35,16.80
2019,05,26,11,36,16.70
2019,05,26,11,37,16.70
2019,05,26,11,38,16.70
2019,05,26,11,39,16.70
2019,05,26,11,40,16.70
2019,05,26,11,41,16.70
2019,05,26,11,42,16.70
2019,05,26,11,43,16.70
2019,05,26,11,44,16.70
2019,05,26,11,45,16.60
2019,05,26,11,46,16.60
2019,05,26,11,47,16.50
2019,05,26,11,48,16.40
2019,05,26,11,49,16.40
2019,05,26,11,50,16.30
2019,05,26,11,51,16.40
2019,05,26,11,52,16.40
2019,05,26,11,53,16.40
2019,05,26,11,54,16.40
2019,05,26,11,55,16.40
2019,05,26,11,56,16.40
2019,05,26,11,57,16.40
2019,05,26,11,58,16.40
2019,05,26,11,59,16.40
2019,05,26,12,00,16.40
2019,05,26,12,01,16.40
2019,05,26,12,02,16.40
2019,05,26,12,03,16.40
2019,05,26,12,04,16.40
2019,05,26,12,05,16.40
2019,05,26,12,06,16.40
2019,05,26,12,07,16.40
2019,05,26,12,08,16.40
2019,05,26,12,09,16.40
2019,05,26,12,10,16.40
2019,05,26,12,11,16.40
2019,05,26,12,12,16.40
2019,05,26,12,13,16.40
2019,05,26,12,14,16.40
2019,05,26,12,15,16.40
2019,05,26,12,16,16.40
2019,05,26,12,17,16.30
2019,05,26,12,18,16.30
2019,05,26,12,19,16.30
2019,05,26,12,20,16.30
2019,05,26,12,21,16.40
2019,05,26,12,22,16.40
2019,05,26,12,23,16.60
2019,05,26,12,24,16.90
2019,05,26,12,25,17.00
2019,05,26,12,26,17.20
2019,05,26,12,27,17.20
2019,05,26,12,28,17.20
2019,05,26,12,29,17.20
2019,05,26,12,30,17.20
2019,05,26,12,31,17.20
2019,05,26,12,32,17.10
2019,05,26,12,33,17.10
2019,05,26,12,34,17.10
2019,05,26,12,35,17.10
2019,05,26,12,36,17.10
2019,05,26,12,37,17.10
2019,05,26,12,38,17.10
2019,05,26,12,39,17.10
2019,05,26,12,40,17.20
2019,05,26,12,41,17.20
2019,05,26,12,42,17.30
2019,05,26,12,43,17.40
2019,05,26,12,44,17.60
2019,05,26,12,45,17.70
2019,05,26,12,46,17.80
2019,05,26,12,47,17.80
2019,05,26,12,48,17.90
2019,05,26,12,49,17.90
2019,05,26,12,50,17.90
2019,05,26,12,51,18.00
2019,05,26,12,52,18.10
2019,05,26,12,53,18.20
2019,05,26,12,54,18.10
2019,05,26,12,55,18.10
2019,05,26,12,56,18.10
2019,05,26,12,57,18.20
2019,05,26,12,58,18.20
2019,05,26,12,59,18.40
2019,05,26,13,00,18.40
2019,05,26,13,01,18.50
2019,05,26,13,02,18.60
2019,05,26,13,03,18.70
2019,05,26,13,04,18.90
2019,05,26,13,05,19.00
2019,05,26,13,06,19.10
2019,05,26,13,07,19.20
2019,05,26,13,08,19.30
2019,05,26,13,09,19.20
2019,05,26,13,10,19.20
2019,05,26,13,11,19.20
2019,05,26,13,12,19.10
2019,05,26,13,13,19.10
2019,05,26,13,14,19.10
2019,05,26,13,15,19.10
2019,05,26,13,16,19.10
2019,05,26,13,17,19.10
2019,05,26,13,18,19.20
2019,05,26,13,19,19.20
2019,05,26,13,20,19.20
2019,05,26,13,21,19.20
2019,05,26,13,22,19.20
2019,05,26,13,23,19.20
2019,05,26,13,24,19.20
2019,05,26,13,25,19.20
2019,05,26,13,26,19.10
2019,05,26,13,27,19.10
2019,05,26,13,28,19.10
2019,05,26,13,29,19.10
2019,05,26,13,30,18.90
2019,05,26,13,31,18.90
2019,05,26,13,32,18.90
2019,05,26,13,33,18.80
2019,05,26,13,34,18.60
2019,05,26,13,35,18.40
2019,05,26,13,36,18.20
2019,05,26,13,37,18.00
2019,05,26,13,38,17.90
2019,05,26,13,39,17.90
2019,05,26,13,40,17.80
2019,05,26,13,41,17.60
2019,05,26,13,42,17.60
2019,05,26,13,43,17.60
2019,05,26,13,44,17.60
2019,05,26,13,45,17.60
2019,05,26,13,46,17.60
2019,05,26,13,47,17.70
2019,05,26,13,48,17.70
2019,05,26,13,49,17.70
2019,05,26,13,50,17.80
2019,05,26,13,51,17.80
2019,05,26,13,52,17.80
2019,05,26,13,53,17.80
2019,05,26,13,54,17.80
2019,05,26,13,55,17.70
2019,05,26,13,56,17.40
2019,05,26,13,57,17.20
2019,05,26,13,58,17.20
2019,05,26,13,59,17.10
2019,05,26,14,00,17.00
2019,05,26,14,01,16.90
2019,05,26,14,02,16.90
2019,05,26,14,03,16.90
2019,05,26,14,04,16.90
2019,05,26,14,05,16.90
2019,05,26,14,06,16.90
2019,05,26,14,07,16.90
2019,05,26,14,08,16.90
2019,05,26,14,09,16.90
2019,05,26,14,10,17.00
2019,05,26,14,11,16.90
2019,05,26,14,12,16.90
2019,05,26,14,13,16.90
2019,05,26,14,14,16.90
2019,05,26,14,15,16.80
2019,05,26,14,16,16.80
2019,05,26,14,17,16.80
2019,05,26,14,18,16.80
2019,05,26,14,19,16.80
2019,05,26,14,20,16.80
2019,05,26,14,21,16.80
2019,05,26,14,22,16.80
2019,05,26,14,23,16.80
2019,05,26,14,24,16.80
2019,05,26,14,25,16.80
2019,05,26,14,26,16.80
2019,05,26,14,27,16.80
2019,05,26,14,28,16.90
2019,05,26,14,29,17.00
2019,05,26,14,30,17.00
2019,05,26,14,31,17.20
2019,05,26,14,32,17.30
2019,05,26,14,33,17.30
2019,05,26,14,34,17.40
2019,05,26,14,35,17.50
2019,05,26,14,36,17.60
2019,05,26,14,37,17.70
2019,05,26,14,38,17.80
2019,05,26,14,39,17.90
2019,05,26,14,40,18.10
2019,05,26,14,41,18.20
2019,05,26,14,42,18.20
2019,05,26,14,43,18.40
2019,05,26,14,44,18.50
2019,05,26,14,45,18.50
2019,05,26,14,46,18.40
2019,05,26,14,47,18.40
2019,05,26,14,48,18.50
2019,05,26,14,49,18.60
2019,05,26,14,50,18.70
2019,05,26,14,51,18.60
2019,05,26,14,52,18.60
2019,05,26,14,53,18.50
2019,05,26,14,54,18.40
2019,05,26,14,55,18.20
2019,05,26,14,56,18.20
2019,05,26,14,57,18.20
2019,05,26,14,58,18.20
2019,05,26,14,59,18.20
2019,05,26,15,00,18.30
2019,05,26,15,01,18.40
2019,05,26,15,02,18.40
2019,05,26,15,03,18.50
2019,05,26,15,04,18.50
2019,05,26,15,05,18.60
2019,05,26,15,06,18.60
2019,05,26,15,07,18.70
2019,05,26,15,08,18.70
2019,05,26,15,09,18.60
2019,05,26,15,10,18.50
2019,05,26,15,11,18.50
2019,05,26,15,12,18.50
2019,05,26,15,13,18.50
2019,05,26,15,14,18.60
2019,05,26,15,15,18.60
2019,05,26,15,16,18.70
2019,05,26,15,17,18.80
2019,05,26,15,18,18.90
2019,05,26,15,19,18.90
2019,05,26,15,20,18.90
2019,05,26,15,21,18.90
2019,05,26,15,22,18.90
2019,05,26,15,23,19.10
2019,05,26,15,24,19.10
2019,05,26,15,25,19.10
2019,05,26,15,26,19.10
2019,05,26,15,27,19.20
2019,05,26,15,28,19.30
2019,05,26,15,29,19.30
2019,05,26,15,30,19.40
2019,05,26,15,31,19.40
2019,05,26,15,32,19.40
2019,05,26,15,33,19.40
2019,05,26,15,34,19.40
2019,05,26,15,35,19.30
2019,05,26,15,36,19.20
2019,05,26,15,37,19.10
2019,05,26,15,38,19.10
2019,05,26,15,39,19.10
2019,05,26,15,40,19.20
2019,05,26,15,41,19.30
2019,05,26,15,42,19.40
2019,05,26,15,43,19.50
2019,05,26,15,44,19.60
2019,05,26,15,45,19.70
2019,05,26,15,46,19.80
2019,05,26,15,47,19.90
2019,05,26,15,48,19.90
2019,05,26,15,49,20.00
2019,05,26,15,50,20.10
2019,05,26,15,51,20.20
2019,05,26,15,52,20.40
2019,05,26,15,53,20.40
2019,05,26,15,54,20.50
2019,05,26,15,55,20.60
2019,05,26,15,56,20.70
2019,05,26,15,57,20.80
2019,05,26,15,58,20.90
2019,05,26,15,59,21.00
2019,05,26,16,00,21.00
2019,05,26,16,01,21.10
2019,05,26,16,02,21.20
2019,05,26,16,03,21.20
2019,05,26,16,04,21.30
2019,05,26,16,05,21.30
2019,05,26,16,06,21.40
2019,05,26,16,07,21.40
2019,05,26,16,08,21.40
2019,05,26,16,09,21.40
2019,05,26,16,10,21.30
2019,05,26,16,11,21.20
2019,05,26,16,12,21.00
2019,05,26,16,13,21.00
2019,05,26,16,14,20.80
2019,05,26,16,15,20.70
2019,05,26,16,16,20.60
2019,05,26,16,17,20.40
2019,05,26,16,18,20.40
2019,05,26,16,19,20.30
2019,05,26,16,20,20.20
2019,05,26,16,21,20.20
2019,05,26,16,22,20.20
2019,05,26,16,23,20.20
2019,05,26,16,24,20.20
2019,05,26,16,25,20.20
2019,05,26,16,26,20.20
2019,05,26,16,27,20.10
2019,05,26,16,28,20.00
2019,05,26,16,29,19.90
2019,05,26,16,30,19.90
2019,05,26,16,31,19.90
2019,05,26,16,32,19.90
2019,05,26,16,33,19.90
2019,05,26,16,34,19.90
2019,05,26,16,35,19.90
2019,05,26,16,36,19.90
2019,05,26,16,37,19.80
2019,05,26,16,38,19.70
2019,05,26,16,39,19.70
2019,05,26,16,40,19.70
2019,05,26,16,41,19.60
2019,05,26,16,42,19.60
2019,05,26,16,43,19.60
2019,05,26,16,44,19.50
2019,05,26,16,45,19.50
2019,05,26,16,46,19.60
2019,05,26,16,47,19.70
2019,05,26,16,48,19.80
2019,05,26,16,49,19.80
2019,05,26,16,50,19.90
2019,05,26,16,51,20.00
2019,05,26,16,52,20.10
2019,05,26,16,53,20.20
2019,05,26,16,54,20.20
2019,05,26,16,55,20.30
2019,05,26,16,56,20.40
2019,05,26,16,57,20.40
2019,05,26,16,58,20.30
2019,05,26,16,59,20.10
2019,05,26,17,00,20.00
2019,05,26,17,01,19.90
2019,05,26,17,02,20.00
2019,05,26,17,03,20.00
2019,05,26,17,04,19.90
2019,05,26,17,05,19.90
2019,05,26,17,06,19.90
2019,05,26,17,07,19.90
2019,05,26,17,08,19.90
2019,05,26,17,09,19.90
2019,05,26,17,10,19.80
2019,05,26,17,11,19.70
2019,05,26,17,12,19.70
2019,05,26,17,13,19.80
2019,05,26,17,14,19.80
2019,05,26,17,15,19.80
2019,05,26,17,16,19.80
2019,05,26,17,17,19.90
2019,05,26,17,18,19.90
2019,05,26,17,19,19.90
2019,05,26,17,20,19.90
2019,05,26,17,21,19.80
2019,05,26,17,22,19.80
2019,05,26,17,23,19.70
2019,05,26,17,24,19.60
2019,05,26,17,25,19.50
2019,05,26,17,26,19.40
2019,05,26,17,27,19.40
2019,05,26,17,28,19.30
2019,05,26,17,29,19.30
2019,05,26,17,30,19.30
2019,05,26,17,31,19.40
2019,05,26,17,32,19.40
2019,05,26,17,33,19.50
2019,05,26,17,34,19.60
2019,05,26,17,35,19.60
2019,05,26,17,36,19.70
2019,05,26,17,37,19.60